www.pogodaiklimat.ru

Погода и климат >> Архив погоды >> Гондурас >> Amapala


ПОГОДА в Amapala

  • Прогноз погоды в Amapala
  • Монитор погоды в Amapala
  • Климат города

АРХИВ ПОГОДЫ в Amapala

Время (UTC), дата Ветер
(напр.,м/с)
 
Видим.   Явления Облачность Т
(С)
Тd
(С)
f
(%)
Тe
(С)
Тes
(С)
Комфортность P
(гПа)
Po
(гПа)
Тmin
(С)
Tmax
(С)
R
(мм)
R24
(мм)
S
(см)
18 10.07 СВ 7 20 км 4/1 960 м
[Cu hum Cs]
+35.4 +20.9 43 +42 +47 опасность
перегрева
1014.1 1013.6 +27.0 +35.4
21 10.07 В 4 20 км 3/1 960 м
[Cu hum Ci fib]
+37.0 +21.6 41 +45 +51 опасность
перегрева
1012.0 1011.5
00 11.07 СВ 5 20 км 3/1 900 м
[Cu hum Ci fib]
+34.8 +20.8 44 +42 +42 опасность
перегрева
1012.1 1011.6 +27.0 +37.6
12 11.07 СВ 2 20 км 3/0
[Ci fib]
+27.6 +22.6 74 +36 +37 очень
душно
1012.9 1012.4 +25.8 +37.6
15 11.07 СВ 3 20 км 5/0
[Ci fib]
+33.0 +23.2 56 +43 +52 опасность
перегрева
1014.1 1013.6
18 11.07 СВ 4 20 км 8/1
[Cu hum Cs]
+35.4 +22.8 48 +45 +56 опасность
перегрева
1013.2 1003.7 +25.8 +35.4
21 11.07 В 2 20 км 6/1 960 м
[Cu hum Cs]
+37.0 +22.6 44 +46 +55 опасность
перегрева
1011.1 1010.6
12 12.07 штиль 0 20 км 9/0
[Ac trans Cs]
+27.4 +23.8 81 +38 +38 очень
душно
1012.4 1011.9 +25.5 +37.8
15 12.07 С 2 20 км 8/1 900 м
[Cu hum Ac trans Cs]
+32.6 +23.3 58 +43 +50 опасность
перегрева
1015.5 1016.5
18 12.07 В 3 20 км 8/1 900 м
[Cu hum Cs]
+35.0 +24.6 55 +48 +61 опасность
перегрева
1014.1 1013.6 +25.5 +35.0
21 12.07 ЮЗ 4 20 км 8/1 900 м
[Cu hum Cs]
+34.4 +25.7 61 +50 +55 опасность
перегрева
1011.1 1010.6
00 13.07 СВ 3 20 км в посл. час гроза {дождь} 9/1 750 м
[Sc Ac As Ci fib]
+25.6 +24.0 91 +35 +35 очень
душно
1012.7 1012.2 +25.2 +37.5 5
12 13.07 штиль 0 20 км 4/0
[Ac trans]
+27.4 +23.6 80 +37 +38 очень
душно
1013.3 1012.8 +25.4 +37.5
15 13.07 СВ 4 20 км 1/0
[Ci fib]
+31.8 +23.6 62 +43 +51 опасность
перегрева
1014.7 1014.2
18 13.07 СВ 4 15 км 3/1 900 м
[Cu hum Ci fib]
+35.0 +22.7 49 +45 +57 опасность
перегрева
1014.2 1013.7 +25.4 +35.0
21 13.07 СВ 4 20 км 3/1 960 м
[Cu hum Ci fib]
+36.2 +23.2 47 +46 +52 опасность
перегрева
1012.3 1011.8
00 14.07 В 2 20 км 1/1 900 м
[Cu hum]
+33.2 +24.6 61 +46 +46 опасность
перегрева
1013.4 1012.9 +25.4 +36.6
12 14.07 штиль 0 20 км 1/0
[Ci fib]
+25.8 +23.3 86 +35 +35 очень
душно
1014.8 1014.3 +24.0 +36.6
15 14.07 СВ 2 20 км ясно +33.2 +22.2 53 +42 +55 опасность
перегрева
1015.5 1015.0
18 14.07 С 4 20 км 1/0
[Ci fib]
+35.4 +20.6 42 +42 +56 опасность
перегрева
1014.1 1013.6 +24.0 +35.4
21 14.07 СВ 5 20 км ясно +37.4 +22.1 41 +45 +51 опасность
перегрева
1012.2 1011.7
00 15.07 СВ 2 20 км 1/0
[]
+34.2 +23.3 53 +45 +45 опасность
перегрева
1012.1 1011.6 +24.0 +37.5
15 15.07 СВ 2 20 км 8/0
[Ac trans]
+32.0 +23.6 61 +43 +49 опасность
перегрева
1015.5 1015.0
18 15.07 ЮЗ 2 20 км 4/1 900 м
[Cu hum Ac trans]
+33.8 +21.9 50 +42 +58 опасность
перегрева
1013.9 1013.4 +26.0 +34.0
21 15.07 В 3 20 км 6/1 900 м
[Cu hum Ac trans]
+34.8 +22.5 49 +44 +49 опасность
перегрева
1011.0 1010.5
00 16.07 СВ 1 20 км 9/1 960 м
[Cu hum Ac As Ci fib]
+33.0 +24.7 62 +46 +46 опасность
перегрева
1012.5 1012.0 +26.0 +37.0
12 16.07 СВ 2 20 км 1/0
[Ac trans]
+27.8 +22.5 73 +37 +37 очень
душно
1014.8 1014.3 +26.0 +37.0
15 16.07 СВ 6 20 км 4/1 750 м
[Cu hum Ac trans]
+32.2 +22.3 56 +41 +45 опасность
перегрева
1015.5 1015.0
18 16.07 СВ 5 20 км 1/1 960 м
[Cu hum]
+36.0 +22.6 46 +45 +55 опасность
перегрева
1015.1 1014.6 +26.0 +36.0
21 16.07 СВ 6 20 км 3/1 960 м
[Cu hum Ci fib]
+37.6 +21.3 39 +45 +48 опасность
перегрева
1013.9 1013.4
00 17.07 В 2 20 км 9/1 900 м
[Cu hum Ac trans Cs]
+34.4 +23.6 53 +45 +45 опасность
перегрева
1012.7 1012.2 +26.0 +37.6
12 17.07 В 2 20 км 9/0
[Ac trans Ci fib]
+29.8 +21.4 61 +38 +38 очень
душно
1015.0 1014.5 +28.4 +37.6

 

Местоположение метеостанции Amapala (Гондурас): широта 13.27 долгота -87.65 высота над уровнем моря 5 м.

В архиве по умолчанию представлена погода в Amapala за последнюю неделю. Архивные данные за месяц целиком и за предыдущие месяцы, начиная с января 2011 года, Вы можете получить, выбрав интересующий диапазон дат из раскрывающегося списка и нажав кнопку "Ввод!".


*Определитесь, кто Вы:
робот инопланетянин человек

Внимание! Время в таблицах - всемирное. Для получения местного времени необходимо прибавить поправку, которая в Amapala равна -6 ч.

Смотрите также архив погоды в соседних городах и на ближайших метеорологических станциях:

Погода в Choluteca (Гондурас) (51 км)
Погода в Chinandega (Никарагуа) (91 км)
Погода в Tegucigalpa (Гондурас) (99 км)
Погода в La Esperanza (Гондурас) (129 км)
Погода в Jinotega (Никарагуа) (182 км)
Погода в Managua (Никарагуа) (203 км)
Погода в Santa Rosa De Copan (Гондурас) (208 км)
Погода в Nueva Ocotepeque (Гондурас) (210 км)
Погода в Yoro (Гондурас) (219 км)
Погода в La Mesa (Гондурас) (244 км)

Пояснения к столбцам:

Ветер - указаны скорость ветра в м/с - средняя за 10 мин, порывы в срок и между сроками (в фигурных скобках) и направление, откуда дует ветер: С - северный, СВ - северо-восточный, В - восточный, ЮВ - юго-восточный, Ю - южный, ЮЗ - юго-западный, З - западный, СЗ - северо-западный.
Видимость - горизонтальная дальность видимости в метрах или километрах. При видимости от 1 до 10 км при отсутствии осадков обычно наблюдается дымка, при ухудшении видимости до 1 км и менее - туман. В сухую погоду видимость может ухудшаться дымом, пылью или мглою.
Явления - указаны атмосферные явления, наблюдавшиеся в срок или в последний час перед сроком; фигурными скобками обозначены явления, наблюдавшиеся между сроками (за 1-3 часа до срока); квадратными скобками обозначены град или гололедные отложения с указанием их диаметра в мм.
Облачность - указаны через наклонную черту общая и нижняя облачность в баллах и высота нижней границы облаков в метрах; квадратными скобками обозначены формы облаков: Ci - перистые, Cs - перисто-слоистые, Cc - перисто-кучевые, Ac - высококучевые, As - высокослоистые, Sc - слоисто-кучевые, Ns - слоисто-дождевые, Cu - кучевые, Cb - кучево-дождевые. Подробнее классификацию облаков см. в Атласе облаков (PDF).
T - Температура воздуха - температура, измеренная на высоте 2 м над землей.
Td - Температура точки росы - температура, при понижении до которой содержащийся в воздухе водяной пар достигнет насыщения.
f - Относительная влажность воздуха - влажноcть воздуха, измеренная на высоте 2 м над землей.
Te - Эффективная температура - температура, которую ощущает одетый по сезону человек в тени. Характеристика душности погоды. При расчете учитывается влияние влажности воздуха и скорости ветра на теплоощущения человека.
Tes - Эффективная температура на солнце - температура, которую ощущает человек, с поправкой на солнечный нагрев. Характеристика знойности погоды. Зависит от высоты солнца над горизонтом, облачности и скорости ветра. Ночью, в пасмурную погоду, а также при ветре 12 м/с и более поправка равна нулю.
P - Атмосферное давление - приведенное к уровню моря атмосферное давление.
Po - Атмосферное давление - измеренное на уровне метеостанции атмосферное давление.
Tmin - Минимальная температура - минимум температуры воздуха на высоте 2 м над землей.
Tmax - Максимальная температура - максимум температуры воздуха на высоте 2 м над землей.
R - Количество осадков - Количество выпавших осадков за период времени, мм. При наведении курсора мыши на число - период времени, за который выпало указанное количество осадков.
R24 - Количество осадков - Количество выпавших осадков за 24 часа, мм.
S - Снежный покров - Высота снежного покрова, см. При наведении курсора мыши на число - состояние снежного покрова и степень покрытия местности в баллах.